Location: Kershaw
(34.5481°N, 80.5823°W)
Time: 20:42:11
(UTC+00:00)

Vanguard 2 Rocket - Pass Details

Date: 01 October 2022
Orbit: 555 x 3321 km, 32.9° (Epoch: 28 November)

Event Time Altitude Azimuth Distance (km) Brightness Sun altitude
Rises 01:16:18 0° 205° (SSW) 7,260 11.6 -27.1°
Reaches altitude 10° 01:22:53 10° 194° (SSW) 6,060 11.0 -28.4°
Enters shadow 01:34:14 24° 157° (SSE) 4,342 9.9 -30.6°
